This demonstration page uses our WeatherBlox Daily Observations layout. Learn more.

Left ArrowRight Arrow

41.12389, -100.76542

Hourly Observations for March 5, 2020

Temp ( °F °C ) Dew Point ( °F °C ) Humidity (%) Winds ( mph kmh ) Pressure ( in mb ) Visibility ( mi km ) Precip ( " mm )
12:53 am 00:53 Clear 41 5 31 -0.6 67 67 N 17 28 30.09 1019 10 16 0.00 0.00
1:53 am 01:53 Clear 39 3.9 29 -1.7 67 67 N 15 24 30.14 1021 10 16 0.00 0.00
2:53 am 02:53 Mostly Cloudy 37 2.8 27 -2.8 67 67 NNW 10 17 30.15 1021 10 16 0.00 0.00
3:53 am 03:53 Cloudy 39 3.9 26 -3.3 60 60 NNW 15 24 30.16 1021 10 16 0.00 0.00
4:53 am 04:53 Partly Cloudy 34 1.1 25 -3.9 70 70 NNW 13 20 30.21 1023 10 16 0.00 0.00
5:53 am 05:53 Clear 33 0.6 26 -3.3 75 75 NNW 13 20 30.24 1024 10 16 0.00 0.00
6:53 am 06:53 Clear 31 -0.6 24 -4.4 76 76 NNW 10 17 30.30 1026 10 16 0.00 0.00
7:53 am 07:53 Sunny 32 0 24 -4.4 73 73 NNW 12 19 30.34 1027 10 16 0.00 0.00
8:53 am 08:53 Sunny 38 3.3 24 -4.4 57 57 NW 17 28 30.37 1029 10 16 0.00 0.00
9:53 am 09:53 Sunny 46 7.8 19 -7.2 34 34 NNW 23 37 30.37 1029 10 16 0.00 0.00
10:53 am 10:53 Sunny 48 8.9 12 -11.1 23 23 N 26 43 30.40 1029 10 16 0.00 0.00
11:53 am 11:53 Sunny 50 10 10 -12.2 20 20 N 24 39 30.40 1029 10 16 0.00 0.00
12:53 pm 12:53 Sunny 51 10.6 10 -12.2 19 19 N 25 41 30.40 1029 10 16 0.00 0.00
1:53 pm 13:53 Sunny 53 11.7 10 -12.2 18 18 N 23 37 30.39 1029 10 16 0.00 0.00
2:53 pm 14:53 Sunny 52 11.1 9 -12.8 17 17 N 22 35 30.38 1029 10 16 0.00 0.00
3:53 pm 15:53 Sunny 53 11.7 9 -12.8 17 17 N 21 33 30.39 1029 10 16 0.00 0.00
4:53 pm 16:53 Sunny 52 11.1 10 -12.2 18 18 N 17 28 30.41 1030 10 16 0.00 0.00
5:53 pm 17:53 Sunny 50 10 11 -11.7 21 21 N 13 20 30.42 1030 10 16 0.00 0.00
6:53 pm 18:53 Clear 40 4.4 10 -12.2 29 29 N 5 7 30.45 1031 10 16 0.00 0.00
7:53 pm 19:53 Clear 34 1.1 10 -12.2 37 37 Calm 30.48 1032 10 16 0.00 0.00
8:53 pm 20:53 Clear 29 -1.7 15 -9.4 56 56 Calm 30.49 1033 10 16 0.00 0.00
9:53 pm 21:53 Clear 25 -3.9 13 -10.6 60 60 SE 3 6 30.49 1033 10 16 0.00 0.00
10:53 pm 22:53 Clear 24 -4.4 12 -11.1 60 60 Calm 30.50 1033 10 16 0.00 0.00
11:53 pm 23:53 Clear 22 -5.6 13 -10.6 68 68 Calm 30.49 1033 10 16 0.00 0.00

Powered by AerisWeather